Wind_Speed
27 28 27 24 23 24 22 23 23 24 27 28 27 27 25 26 26 26 27 25 27 27 27 30 31 33 36 38 37 35 52 62 67 67 58 48 57 59 57 56 44 39 44 43 49
27 28 29 28 27 26 24 22 22 22 22 25 26 26 25 25 23 23 26 25 25 26 27 28 30 31 35 37 38 35 46 55 58 57 53 41 42 48 53 50 61 40 42 47 54
29 30 31 33 32 28 24 23 22 21 22 22 24 25 24 24 21 21 22 24 25 24 26 27 27 30 32 34 25 29 42 44 45 41 38 41 35 36 49 51 39 57 51 51 54
30 32 32 33 32 32 30 27 24 22 21 22 23 24 23 23 20 23 23 24 23 23 23 23 26 27 26 23 13 23 25 28 32 31 34 29 30 38 39 41 33 39 51 52 53
29 29 29 30 29 31 29 28 25 22 20 20 21 22 21 22 22 22 21 21 21 21 20 21 23 21 20 13 12 16 18 27 30 32 34 30 32 37 38 44 38 35 37 40 40
28 27 25 23 21 21 24 25 22 19 19 18 20 21 21 24 20 22 23 20 20 19 19 19 21 18 18 12 13 15 15 24 25 33 32 26 33 39 39 37 37 31 33 35 32
26 24 23 20 20 20 19 19 19 20 19 16 17 17 18 24 21 21 24 20 19 18 18 17 19 17 18 13 13 16 17 13 22 36 32 37 26 25 32 38 34 31 32 35 32
23 22 20 20 21 22 21 21 20 19 18 17 15 16 17 20 22 20 21 21 19 18 17 17 16 14 14 17 17 21 21 24 27 30 39 36 27 26 28 32 30 31 32 30 28
22 22 21 21 21 22 22 21 20 19 18 19 19 18 20 18 20 21 21 21 21 18 17 16 18 17 18 18 18 15 3 6 4 2 11 22 21 20 24 27 29 28 28 26 26
20 20 21 20 20 21 22 22 20 21 20 19 17 16 14 13 15 21 25 22 21 17 16 16 18 18 17 21 15 13 8 6 7 5 12 19 22 18 24 28 29 29 29 27 28
18 19 20 23 23 22 21 21 21 21 21 19 17 13 11 11 13 17 18 23 20 19 16 17 17 18 16 14 13 13 9 17 10 6 11 10 16 19 24 27 30 32 29 26 27
20 19 22 23 27 27 26 23 22 20 22 21 17 18 16 13 13 14 16 23 23 19 17 18 13 16 19 19 19 14 23 26 24 18 18 25 26 30 28 23 23 26 29 31 33
22 24 24 26 27 25 23 22 22 21 21 17 17 15 12 12 10 9 11 13 27 25 19 18 18 19 19 23 26 31 31 31 35 32 30 33 40 33 26 28 28 30 31 32 34
25 26 26 26 23 23 20 20 16 16 17 15 13 11 13 11 10 8 9 9 11 27 23 15 19 18 17 16 20 26 23 19 37 39 41 38 37 26 19 18 12 16 28 37 43
29 27 26 25 23 21 18 15 16 13 14 16 11 13 16 11 10 8 8 9 9 14 24 23 27 19 17 13 17 14 15 21 27 38 40 29 28 5 14 16 19 25 30 33 33
29 29 27 26 23 20 19 15 13 11 6 12 15 8 12 12 10 6 8 9 10 10 15 27 33 30 23 26 24 22 23 22 20 15 19 6 19 15 20 20 26 32 35 36 37
29 29 26 24 22 19 16 18 11 9 13 10 16 12 12 9 11 14 8 9 7 7 9 17 29 30 28 29 27 24 21 20 22 21 12 13 17 10 17 22 27 35 38 40 42
29 27 26 22 21 19 16 15 11 13 15 15 15 14 14 10 13 15 21 21 15 13 12 15 15 27 31 28 26 29 23 17 16 14 12 20 19 10 20 20 29 32 37 43 46
27 26 24 20 20 19 18 14 15 15 18 14 12 12 7 13 17 17 19 19 20 21 24 22 18 27 22 27 20 23 24 17 26 26 26 24 22 26 32 33 38 43 46 46 46
27 23 21 19 18 19 17 15 15 20 14 16 18 17 18 15 17 22 22 21 19 19 27 24 21 22 27 21 22 26 25 28 27 31 29 24 25 28 27 34 42 40 40 41 39
27 23 20 17 20 20 16 17 17 20 17 15 20 19 20 23 19 19 18 20 21 20 23 23 22 14 25 19 24 30 28 29 30 33 30 27 23 27 35 39 39 43 46 40 35
28 25 18 19 19 20 18 16 20 19 20 20 17 21 22 22 21 20 19 25 20 23 24 21 20 17 21 23 29 33 35 34 31 22 29 28 17 22 33 42 39 43 37 35 31
28 28 22 21 22 20 19 18 23 21 26 22 21 21 21 20 22 20 22 28 23 25 26 24 22 22 17 20 24 25 27 28 30 30 32 34 32 25 30 36 42 36 30 29 29
30 29 27 24 24 22 20 21 23 27 25 22 24 21 18 21 24 22 24 27 25 26 25 27 26 24 19 23 20 21 22 30 31 34 28 29 27 23 32 34 32 26 28 32 34
30 28 29 29 27 22 23 22 23 28 21 22 26 21 19 21 23 24 24 24 27 27 25 24 26 27 22 22 26 25 24 31 34 29 30 25 27 35 33 26 22 26 30 32 35
29 28 23 28 31 23 25 22 20 24 22 25 22 20 21 20 19 22 23 24 22 26 26 27 21 28 24 24 26 28 26 33 37 36 39 37 35 34 26 21 26 28 30 34 32
31 30 27 31 33 24 27 22 21 22 22 23 24 22 20 17 15 18 22 23 22 23 24 23 19 22 20 24 25 23 25 28 27 34 37 31 31 21 22 24 26 29 33 34 35
Wind_Direction
311 310 303 297 295 298 297 286 286 280 261 254 255 254 255 256 258 258 261 264 271 276 286 292 292 293 295 297 283 255 239 235 230 228 224 219 215 225 216 200 197 212 211 226 237
318 308 303 300 295 296 296 295 291 283 275 261 256 252 255 259 261 264 269 274 278 287 293 293 293 302 302 300 286 251 238 233 229 226 219 200 207 226 228 220 205 204 224 228 236
317 308 296 293 293 290 288 296 294 288 274 269 261 257 257 261 263 265 268 272 278 284 292 298 296 297 295 294 282 253 236 232 226 223 208 198 221 231 236 225 221 208 218 223 231
315 311 303 288 285 289 286 290 292 288 282 269 266 262 258 261 262 260 265 272 278 283 293 293 290 292 290 289 268 245 235 231 213 212 208 208 238 238 228 224 222 218 231 227 244
317 318 314 305 291 289 285 287 288 286 286 274 267 266 261 256 258 251 261 265 272 280 290 285 288 290 282 278 254 247 225 220 204 191 193 237 227 243 251 228 238 253 254 261 263
321 322 326 325 318 309 296 287 279 288 287 285 273 270 265 257 254 254 257 260 267 277 287 283 282 273 263 234 231 233 233 215 211 192 204 229 230 234 245 252 249 249 258 262 259
325 329 327 328 324 320 319 295 281 283 286 285 281 279 271 267 255 254 260 258 260 269 279 274 270 268 270 240 226 219 235 252 237 197 208 221 224 231 235 243 243 246 249 257 254
325 326 329 323 321 322 321 316 309 294 284 288 283 281 273 271 257 243 247 256 257 258 267 271 261 250 240 244 234 236 228 216 230 212 214 230 237 243 239 235 235 239 244 247 250
324 325 326 322 320 313 313 315 314 312 295 286 285 281 281 276 256 248 237 249 255 253 261 267 248 243 229 233 243 241 308 341 265 192 216 236 240 246 244 240 238 240 247 248 247
323 324 323 321 320 313 307 305 309 308 302 299 290 284 281 281 254 249 253 235 248 249 253 262 250 239 229 230 237 180 176 331 347 303 270 278 279 261 248 251 257 255 248 248 253
321 322 324 325 321 314 309 301 299 299 298 300 294 284 277 280 272 266 253 236 238 246 244 252 252 233 231 220 197 176 217 244 206 166 272 264 258 250 230 245 252 257 262 258 251
315 322 322 321 320 309 302 300 297 293 292 294 290 288 281 275 270 259 268 246 227 239 240 244 249 230 228 214 176 231 240 210 186 185 195 214 230 246 254 275 275 268 265 265 263
310 319 321 321 316 313 310 300 294 289 288 288 293 290 286 288 273 255 262 258 232 230 229 235 223 209 222 231 217 213 226 211 195 206 211 229 234 251 261 253 256 264 271 272 269
305 312 320 322 320 314 314 309 303 292 285 287 288 277 281 276 278 257 251 257 261 240 219 227 212 195 216 241 248 250 250 241 222 221 222 236 254 269 276 273 284 264 253 251 254
299 307 314 318 314 312 308 303 295 294 298 290 280 302 293 293 280 285 258 266 268 241 228 207 211 201 225 232 266 244 225 221 226 230 242 255 267 262 241 216 240 244 257 265 264
295 302 309 312 308 307 306 301 297 297 306 293 303 324 305 303 294 236 274 269 267 266 253 219 215 215 221 218 231 233 240 248 260 260 255 232 248 208 195 246 253 253 251 262 270
293 298 304 307 304 303 299 299 292 274 293 299 302 316 309 301 330 315 293 221 277 293 277 238 218 220 220 226 222 227 248 246 249 251 256 270 251 231 240 244 251 247 247 252 256
289 294 298 300 297 296 292 292 291 259 265 271 272 291 299 329 308 287 298 306 306 290 280 268 245 232 234 248 240 230 236 253 248 246 252 225 255 228 255 250 256 255 253 252 257
284 289 290 293 293 291 288 286 281 258 270 281 274 271 244 235 265 278 280 296 293 290 284 280 260 243 249 251 247 224 225 237 251 261 258 237 251 264 259 249 245 253 257 264 272
280 283 285 289 287 284 280 278 273 270 278 261 260 256 258 241 253 256 268 283 281 282 281 283 269 253 251 253 234 227 233 247 264 267 267 261 250 232 242 250 258 263 268 272 267
275 275 280 282 286 278 274 272 269 271 270 264 267 260 260 268 270 268 273 278 290 278 274 277 280 254 255 251 239 242 248 257 262 268 269 264 244 236 236 245 259 270 275 276 282
271 266 266 281 285 279 277 268 249 262 278 276 271 266 258 260 269 272 278 278 289 288 285 278 275 264 266 254 249 251 256 261 264 255 266 266 248 238 252 263 272 264 267 272 286
268 264 260 267 278 279 273 266 272 275 277 276 275 270 264 258 260 268 274 279 286 285 284 289 278 271 260 261 256 251 249 250 254 251 251 261 270 269 262 262 261 269 280 301 303
268 267 261 263 268 276 277 268 270 270 273 281 275 271 262 264 264 268 276 285 286 281 283 283 276 267 258 251 249 251 247 238 249 257 270 267 270 271 266 264 268 288 305 304 298
266 266 263 258 257 271 274 272 270 277 282 279 277 273 261 263 271 279 278 284 285 281 275 271 272 263 253 249 258 253 241 243 252 268 274 284 284 267 273 273 305 295 296 292 298
264 262 248 257 263 255 267 266 269 272 275 282 278 275 269 266 274 279 284 284 278 281 281 279 261 254 251 250 254 258 260 249 249 258 267 268 264 283 291 300 291 292 295 302 312
258 265 255 251 253 251 263 268 267 273 276 277 280 274 270 273 281 290 289 283 280 280 279 270 261 254 249 252 255 265 260 253 249 259 265 272 280 283 287 288 297 296 300 309 309
Height
5802 5800 5797 5795 5793 5791 5789 5787 5786 5785 5784 5786 5787 5788 5789 5790 5791 5793 5792 5795 5791 5790 5789 5785 5782 5779 5774 5769 5764 5765 5763 5768 5780 5790 5805 5821 5822 5823 5830 5828 5836 5838 5838 5837 5839
5798 5795 5791 5789 5787 5785 5783 5782 5780 5779 5778 5778 5779 5780 5781 5782 5783 5784 5784 5783 5782 5779 5778 5776 5772 5768 5763 5758 5753 5752 5754 5759 5772 5783 5793 5806 5814 5820 5818 5819 5824 5829 5831 5833 5832
5793 5790 5786 5783 5780 5779 5778 5776 5774 5773 5772 5772 5772 5772 5773 5774 5776 5776 5776 5775 5774 5773 5771 5767 5765 5763 5759 5754 5750 5749 5748 5759 5769 5781 5790 5798 5800 5801 5806 5809 5820 5823 5821 5830 5826
5785 5782 5778 5775 5774 5772 5771 5770 5768 5767 5766 5766 5766 5765 5766 5767 5772 5768 5769 5769 5767 5766 5765 5762 5761 5759 5757 5753 5749 5748 5753 5761 5768 5778 5791 5791 5790 5790 5794 5809 5815 5818 5819 5830 5826
5780 5776 5771 5768 5766 5765 5764 5764 5762 5761 5760 5760 5760 5759 5760 5761 5763 5763 5763 5763 5762 5761 5760 5758 5757 5754 5753 5751 5751 5752 5756 5760 5765 5769 5778 5779 5780 5787 5789 5799 5805 5810 5814 5820 5824
5775 5772 5768 5764 5763 5760 5759 5757 5757 5756 5754 5754 5753 5754 5754 5754 5757 5755 5756 5756 5756 5755 5754 5752 5752 5750 5749 5749 5751 5755 5757 5758 5761 5767 5772 5772 5781 5787 5793 5796 5798 5803 5807 5811 5816
5773 5767 5764 5761 5759 5756 5755 5753 5752 5752 5750 5749 5748 5748 5748 5747 5749 5750 5749 5751 5751 5750 5750 5748 5747 5747 5747 5748 5750 5753 5753 5757 5759 5763 5767 5769 5775 5783 5786 5786 5791 5795 5800 5804 5807
5768 5765 5761 5758 5755 5754 5751 5749 5748 5747 5746 5745 5744 5744 5742 5742 5742 5744 5745 5745 5746 5746 5746 5744 5743 5744 5746 5748 5748 5751 5751 5752 5754 5758 5764 5767 5772 5776 5778 5780 5785 5788 5791 5796 5799
5764 5762 5759 5755 5752 5750 5748 5745 5744 5743 5742 5740 5740 5739 5738 5736 5736 5737 5738 5739 5741 5742 5742 5741 5740 5741 5743 5745 5747 5750 5754 5757 5759 5759 5762 5763 5767 5771 5772 5775 5778 5782 5784 5788 5791
5761 5758 5756 5752 5749 5746 5744 5742 5740 5739 5737 5736 5734 5735 5734 5732 5731 5731 5732 5733 5735 5737 5738 5738 5737 5738 5739 5741 5748 5748 5749 5752 5754 5760 5759 5758 5760 5764 5766 5768 5770 5772 5776 5781 5784
5757 5754 5751 5750 5746 5743 5740 5738 5738 5735 5732 5732 5731 5730 5729 5728 5727 5725 5726 5728 5730 5733 5734 5734 5735 5736 5738 5740 5744 5745 5747 5749 5752 5752 5753 5756 5757 5756 5759 5760 5763 5766 5770 5774 5777
5756 5751 5748 5745 5742 5739 5735 5733 5731 5731 5728 5727 5727 5724 5724 5724 5722 5721 5722 5723 5724 5727 5729 5731 5732 5734 5735 5736 5738 5741 5741 5743 5747 5749 5751 5752 5752 5752 5755 5759 5761 5761 5762 5764 5767
5752 5749 5743 5739 5736 5733 5730 5727 5725 5725 5723 5723 5721 5720 5719 5719 5718 5717 5717 5717 5719 5721 5724 5726 5727 5728 5731 5733 5733 5733 5735 5739 5742 5744 5744 5745 5745 5748 5753 5752 5753 5754 5756 5758 5759
5747 5744 5741 5736 5732 5728 5725 5723 5720 5720 5719 5719 5718 5717 5716 5714 5713 5713 5712 5714 5714 5716 5718 5723 5723 5724 5726 5729 5730 5732 5735 5736 5739 5740 5740 5740 5740 5747 5748 5748 5749 5748 5745 5745 5745
5742 5738 5737 5731 5729 5725 5722 5718 5718 5715 5714 5715 5713 5712 5709 5710 5709 5710 5709 5709 5710 5710 5712 5717 5718 5718 5720 5724 5727 5728 5729 5727 5729 5732 5736 5742 5738 5743 5742 5739 5739 5737 5736 5738 5742
5736 5734 5731 5728 5724 5721 5719 5715 5713 5713 5709 5708 5708 5708 5706 5704 5704 5705 5705 5706 5706 5706 5706 5711 5711 5711 5716 5717 5721 5722 5722 5725 5728 5730 5731 5735 5730 5734 5732 5731 5730 5731 5732 5733 5734
5732 5728 5725 5721 5719 5716 5713 5714 5711 5708 5707 5706 5703 5703 5703 5702 5700 5699 5701 5703 5702 5702 5703 5704 5706 5708 5709 5711 5714 5715 5718 5720 5722 5722 5729 5724 5727 5729 5726 5725 5722 5724 5726 5729 5729
5724 5722 5719 5716 5714 5711 5709 5709 5707 5705 5702 5703 5702 5701 5701 5701 5700 5699 5696 5696 5696 5697 5699 5700 5705 5705 5706 5707 5709 5709 5711 5712 5713 5716 5721 5721 5721 5725 5717 5718 5718 5718 5719 5719 5719
5717 5716 5712 5710 5708 5706 5705 5702 5702 5701 5700 5699 5700 5698 5697 5696 5697 5696 5695 5694 5694 5693 5693 5694 5699 5698 5702 5700 5703 5706 5706 5709 5707 5711 5712 5717 5719 5714 5711 5711 5709 5707 5709 5710 5710
5708 5710 5706 5703 5701 5700 5699 5696 5696 5694 5696 5695 5694 5694 5692 5691 5692 5692 5691 5692 5690 5689 5685 5687 5690 5693 5693 5697 5699 5699 5702 5702 5702 5701 5703 5706 5708 5708 5706 5703 5700 5701 5701 5700 5696
5702 5703 5699 5699 5695 5694 5692 5690 5688 5687 5689 5690 5688 5689 5688 5686 5687 5687 5686 5685 5684 5684 5682 5681 5684 5690 5686 5691 5692 5694 5695 5695 5695 5694 5694 5696 5701 5700 5698 5694 5694 5692 5689 5685 5681
5694 5693 5695 5692 5691 5687 5686 5685 5682 5681 5681 5681 5683 5682 5682 5681 5681 5681 5680 5675 5679 5677 5675 5675 5677 5680 5680 5684 5684 5686 5687 5688 5686 5690 5686 5686 5693 5696 5693 5688 5688 5680 5679 5676 5676
5685 5683 5685 5684 5683 5681 5681 5679 5677 5675 5675 5676 5675 5675 5675 5676 5676 5675 5675 5670 5674 5671 5670 5670 5671 5671 5675 5676 5676 5677 5678 5679 5678 5680 5681 5681 5682 5687 5683 5679 5671 5670 5670 5672 5671
5676 5675 5676 5676 5675 5675 5673 5672 5671 5668 5669 5670 5668 5668 5669 5668 5667 5670 5668 5666 5666 5664 5665 5662 5663 5665 5669 5670 5670 5670 5670 5672 5672 5671 5674 5673 5674 5676 5667 5664 5662 5665 5667 5663 5657
5666 5667 5667 5664 5667 5668 5666 5665 5664 5660 5663 5663 5661 5662 5661 5661 5661 5661 5661 5661 5657 5655 5656 5656 5656 5656 5660 5663 5661 5664 5666 5666 5665 5667 5665 5669 5666 5658 5659 5659 5660 5660 5656 5650 5647
5657 5658 5660 5657 5657 5659 5658 5658 5658 5656 5655 5653 5655 5655 5654 5654 5655 5652 5653 5652 5651 5648 5646 5646 5649 5647 5652 5654 5654 5655 5658 5660 5660 5659 5658 5657 5654 5655 5655 5655 5653 5648 5645 5641 5635
5647 5648 5650 5650 5648 5649 5650 5651 5651 5650 5649 5648 5647 5648 5648 5648 5647 5646 5644 5643 5642 5641 5640 5639 5640 5641 5646 5646 5647 5651 5650 5650 5651 5649 5648 5652 5652 5651 5649 5647 5643 5640 5636 5632 5630